Temperature
14 15 15 15 15 15 15 15 15 15 15 15 15 15 15 15 16 16 15 16 16 16 16 16 16 16 16 16 16 16 16 15 15 15 15 15 15 15 15 15 15 15 15
14 14 15 15 15 15 15 15 15 15 15 15 15 15 15 15 15 15 15 15 15 15 15 15 16 15 15 15 16 15 15 15 15 15 15 15 15 15 15 15 15 15 15
14 14 14 14 14 14 14 14 14 15 15 15 15 15 15 15 15 15 15 15 15 15 15 15 15 15 15 15 15 15 15 15 15 15 14 14 14 15 15 15 14 14 14
14 14 14 14 14 14 14 14 14 14 14 14 14 15 15 15 15 15 15 15 15 15 15 15 15 15 15 15 15 15 15 15 15 14 14 14 14 14 14 14 14 14 14
13 13 13 14 14 14 14 14 14 14 14 14 14 14 14 14 15 15 15 15 15 15 15 15 15 15 15 15 15 15 15 14 14 14 14 14 14 14 14 14 14 14 14
13 13 13 13 14 14 14 14 14 14 14 14 14 14 14 14 14 15 15 15 15 15 15 15 15 15 15 15 15 14 14 14 14 14 14 14 14 14 14 14 14 14 14
13 13 13 13 13 13 13 13 14 14 14 14 14 14 14 14 14 14 14 14 14 14 14 14 14 15 15 15 14 14 14 14 14 14 13 14 14 14 14 14 14 14 14
12 12 13 13 13 13 13 13 13 13 13 13 13 13 13 14 14 14 14 14 14 14 14 14 14 14 14 14 14 14 14 14 14 13 13 13 14 14 14 14 14 14 13
12 12 12 12 13 13 13 13 13 13 13 13 13 13 13 13 13 14 14 14 14 14 14 14 14 14 14 14 14 14 14 14 14 13 13 13 13 13 13 13 13 13 13
12 12 12 12 12 12 13 13 13 13 13 13 13 13 13 13 13 13 13 13 13 13 14 14 14 14 14 14 13 13 13 13 13 13 13 13 13 13 13 13 13 13 13
11 11 11 11 12 12 12 12 12 12 12 12 12 12 12 12 12 13 13 13 13 13 13 13 13 13 13 13 13 13 13 13 13 13 13 13 13 13 13 13 13 13 13
11 11 11 11 11 11 11 12 12 12 12 12 12 12 12 12 12 12 12 12 12 13 13 13 13 13 13 13 12 12 13 12 12 12 12 12 12 12 12 12 12 12 12
10 10 11 11 11 11 11 11 11 11 11 12 12 12 11 11 11 12 12 12 12 12 12 12 12 12 12 12 12 12 12 12 12 12 12 12 12 12 12 12 12 12 12
10 10 10 10 10 10 10 10 11 11 11 11 11 11 11 11 11 11 11 11 11 11 12 12 12 12 12 12 12 12 12 12 12 12 12 12 12 12 12 11 11 12 12
9 10 10 10 10 10 10 10 10 10 10 10 10 10 10 10 10 11 11 11 11 11 11 11 11 11 11 11 11 11 11 11 11 11 11 11 11 11 11 11 11 11 11
9 9 9 9 9 9 10 10 9 9 10 10 10 10 10 10 10 10 10 10 10 10 10 11 10 11 11 11 11 11 11 11 11 11 11 11 11 11 11 11 11 11 11
8 8 9 9 9 9 9 9 9 9 9 9 9 9 9 9 9 9 9 9 9 10 10 10 10 10 10 10 10 11 11 11 11 11 11 11 11 11 11 11 11 11 11
8 8 8 8 8 8 8 8 8 8 8 8 8 8 9 8 9 9 9 9 9 9 9 9 9 10 10 10 10 10 10 10 10 10 10 10 10 10 10 10 10 10 10
7 7 7 7 7 7 7 8 8 8 8 8 8 8 8 8 8 8 8 8 8 8 8 9 9 9 9 9 9 9 9 10 10 10 10 10 10 10 10 10 10 10 10
7 7 7 7 7 7 7 7 7 7 7 7 7 7 7 7 7 7 7 7 8 8 8 8 8 8 9 9 9 9 9 9 9 9 9 9 9 9 9 10 10 10 10
6 6 6 6 6 6 6 6 6 6 6 6 6 6 6 6 7 7 7 7 7 7 7 7 8 8 8 8 8 8 8 8 9 9 9 9 9 9 9 9 9 9 9
5 5 5 6 5 5 6 6 5 5 5 5 5 5 6 6 6 6 6 6 6 6 7 7 7 7 7 7 7 7 7 7 8 8 8 8 8 8 8 8 8 8 9
4 5 5 5 5 5 5 5 5 5 5 5 5 5 5 5 5 5 6 6 6 6 6 6 6 6 6 6 6 6 6 6 6 7 7 7 7 7 7 8 8 8 8
4 4 4 4 4 4 4 4 4 4 4 4 4 4 4 5 5 5 5 5 5 5 5 5 5 5 6 6 6 6 6 6 6 6 6 6 7 7 7 7 7 7 8
3 4 4 4 4 4 4 4 4 4 3 4 4 4 4 4 4 4 4 4 4 4 5 5 5 5 5 5 5 5 5 5 5 5 5 6 6 6 6 7 7 7 7
3 3 3 3 3 3 3 3 3 3 3 3 3 3 3 3 4 4 4 4 4 4 4 4 4 4 4 4 4 4 5 5 5 5 5 5 5 5 6 6 6 6 6
Wind_Speed
5 6 6 7 7 8 8 8 8 8 8 8 8 8 8 7 7 7 7 7 7 7 7 7 7 8 8 9 9 9 10 10 10 10 10 11 11 11 10 10 10 10 11
5 7 7 8 8 8 8 8 8 9 9 8 8 8 8 8 7 7 7 7 7 6 7 7 7 7 8 8 7 8 8 8 8 9 9 10 10 10 10 10 10 9 11
6 8 7 8 8 8 8 8 8 9 9 9 8 8 8 8 8 7 7 6 6 6 6 6 6 7 7 7 7 7 7 6 5 6 7 7 8 9 10 10 10 10 10
7 8 7 8 8 8 9 9 9 9 9 9 9 9 8 8 8 8 7 7 5 5 5 5 6 6 7 6 6 5 5 5 4 3 4 6 7 8 9 10 10 10 10
7 9 9 8 8 8 8 9 9 9 9 9 9 9 8 8 8 8 7 7 6 5 4 5 5 6 6 5 5 4 3 3 3 3 5 7 8 8 8 8 9 9 9
7 9 9 9 8 8 8 8 8 8 8 8 9 8 8 8 8 8 7 7 6 6 5 5 5 5 5 5 4 3 3 2 3 3 5 7 8 8 7 7 8 8 8
6 8 8 8 8 7 7 7 7 7 7 7 8 8 8 8 7 7 7 7 6 5 5 5 4 3 4 4 4 3 2 2 3 4 5 7 8 8 7 7 7 8 8
6 8 8 7 7 7 7 6 6 6 6 6 6 7 7 7 7 6 6 6 6 5 4 4 4 2 3 3 3 2 1 2 3 4 5 7 8 7 6 6 7 7 7
7 7 7 7 7 7 7 7 6 6 6 6 6 7 7 6 6 6 6 6 5 5 4 3 3 1 2 3 2 2 1 1 3 3 4 6 7 6 5 5 5 5 6
6 6 6 6 6 6 6 6 6 6 6 6 6 6 6 5 6 6 6 6 6 5 4 3 3 1 1 2 1 1 1 1 2 2 3 5 6 5 5 4 4 4 4
7 6 6 6 6 6 5 5 5 5 5 5 5 5 5 5 5 5 6 6 5 4 4 3 3 1 1 1 2 1 1 2 3 2 4 6 5 4 4 3 3 3 4
5 5 5 6 7 7 5 4 4 4 4 4 5 6 5 5 5 5 5 5 4 4 3 3 3 2 0 1 1 2 0 2 1 3 4 5 5 4 4 3 3 3 4
3 4 5 5 6 6 5 5 5 4 4 5 6 5 5 6 6 6 5 5 4 4 3 2 2 1 1 1 2 2 2 3 3 3 4 5 4 4 4 3 3 3 3
3 4 4 5 5 6 6 5 5 4 4 5 5 6 5 4 4 4 4 4 4 4 3 3 2 2 1 1 2 2 3 3 3 4 4 5 4 4 4 4 3 3 3
4 4 4 5 4 5 5 5 5 5 5 5 5 6 6 4 3 3 3 4 4 4 3 3 3 3 2 3 3 3 2 2 3 3 4 4 3 3 3 3 3 2 3
3 3 3 3 4 5 4 4 4 5 4 5 5 6 5 4 3 3 3 3 4 4 4 3 2 2 2 2 2 2 2 2 2 3 3 3 2 2 2 2 2 1 2
3 3 3 3 4 4 4 4 4 5 5 5 5 5 5 5 4 3 2 2 3 4 4 3 2 2 2 2 1 1 1 2 2 2 3 3 2 2 2 2 2 1 1
4 5 4 5 5 4 4 4 4 5 5 4 5 5 5 5 5 4 2 2 4 4 3 2 2 2 2 2 2 1 1 1 1 2 3 3 2 2 1 2 2 2 1
5 5 4 4 4 4 4 4 4 5 5 4 5 5 5 5 4 4 3 3 3 3 3 2 2 1 1 2 1 1 1 1 1 1 2 2 3 2 2 2 2 2 1
5 4 4 4 3 3 3 3 3 4 4 5 5 5 6 5 5 4 3 3 3 2 2 2 2 2 1 1 1 1 1 1 1 1 0 1 2 2 2 2 2 1 1
5 5 4 4 4 3 2 2 3 2 3 3 4 5 5 5 5 4 3 3 3 2 2 2 2 2 1 1 1 1 1 1 0 0 0 1 1 2 2 2 1 1 1
4 4 4 3 3 3 2 2 1 2 2 2 4 4 4 4 4 4 4 2 2 2 2 2 2 1 1 1 0 0 1 1 1 1 1 1 0 1 2 2 1 2 2
4 4 4 3 3 3 3 2 2 2 2 2 3 3 3 4 3 3 3 3 2 2 1 1 1 1 1 1 1 0 0 1 1 1 1 0 0 0 1 1 1 2 2
3 3 3 3 3 3 2 2 2 2 2 3 2 3 3 4 3 3 3 2 2 2 2 1 1 1 0 1 1 1 1 0 0 1 1 0 0 0 1 1 1 1 2
2 2 2 2 2 3 2 2 1 2 2 2 2 2 3 2 3 3 3 2 2 1 2 2 2 2 1 1 1 1 1 1 1 1 1 1 1 0 1 1 1 2 2
2 2 1 2 2 2 2 2 2 2 3 3 3 3 3 2 1 2 2 2 2 1 1 1 1 2 1 1 1 1 0 1 1 1 1 1 2 2 1 0 1 1 2
Wind_Direction
77 70 63 53 51 50 51 53 53 50 48 49 52 55 56 58 63 66 68 73 75 75 77 85 85 80 78 77 77 80 82 86 86 85 87 90 91 89 88 87 87 87 89
87 83 75 61 57 55 54 55 54 51 48 49 51 53 52 51 58 64 66 69 73 75 79 85 88 85 81 80 80 80 84 85 87 86 89 90 90 88 84 84 88 91 93
79 83 77 64 61 58 56 56 55 52 48 51 51 51 51 50 52 55 59 64 70 72 76 83 90 90 86 82 78 77 83 85 86 91 93 96 95 92 87 87 90 89 91
70 83 77 69 64 61 59 58 56 52 49 51 53 52 51 49 47 47 50 52 58 65 67 79 90 99 97 89 84 79 79 78 80 86 96 98 97 97 93 90 87 91 90
67 79 79 72 67 64 63 59 56 53 50 49 52 52 50 48 46 44 45 46 49 55 65 74 89 100 103 99 95 87 77 68 70 71 78 84 91 96 96 92 91 90 90
69 76 80 72 66 64 65 61 57 54 50 50 50 49 47 45 45 43 41 42 46 48 58 70 82 100 109 109 104 96 76 63 72 67 76 86 93 95 99 98 97 95 93
70 71 81 74 64 62 64 61 57 53 52 53 51 46 44 44 44 42 37 32 36 49 53 56 68 101 110 113 111 94 70 74 80 65 76 82 97 97 94 97 101 100 95
67 69 81 72 67 60 60 60 57 54 54 55 52 47 43 41 41 40 38 32 32 43 52 50 44 77 110 120 128 121 84 67 74 67 76 84 100 106 101 101 103 103 101
61 68 72 69 64 61 57 57 58 52 53 53 52 49 46 45 42 41 41 36 34 37 43 47 37 64 121 128 138 146 139 89 67 53 80 91 103 111 113 109 108 109 107
56 56 61 65 63 58 56 52 54 53 50 47 47 46 44 41 39 38 39 38 35 33 34 40 35 64 128 142 159 185 197 144 108 64 79 99 113 120 117 111 107 115 121
46 42 43 43 43 46 54 51 49 53 46 42 37 37 39 35 36 37 37 36 31 27 23 33 27 26 170 185 225 246 205 131 124 91 85 105 117 126 129 122 125 125 126
42 37 37 36 34 30 30 40 39 47 41 33 30 27 27 30 32 34 36 37 30 20 16 21 8 358 231 157 240 238 135 110 113 89 94 121 132 143 156 146 142 141 138
51 41 42 36 33 27 21 25 20 33 33 32 31 21 26 34 34 34 27 23 17 20 16 360 342 347 39 102 105 114 88 85 78 82 104 125 133 153 170 173 161 156 156
52 43 45 38 34 27 24 20 21 24 24 28 28 20 26 29 29 26 27 19 9 14 5 355 2 358 15 50 99 111 99 85 97 91 93 120 135 160 176 182 177 168 164
54 43 41 37 34 30 26 15 20 22 21 24 33 30 33 28 20 19 21 17 7 13 5 1 15 12 20 35 50 63 75 86 99 108 103 111 130 151 174 186 192 190 172
50 49 45 41 33 33 29 20 15 16 14 22 33 27 31 30 23 16 17 16 9 6 358 0 13 25 12 45 57 55 44 56 93 105 108 117 139 155 167 171 186 173 178
46 51 53 46 37 34 26 16 20 13 9 16 25 29 30 27 21 20 16 9 6 1 355 6 16 44 21 29 39 59 54 55 74 94 105 106 117 158 162 169 178 187 186
44 48 49 41 33 27 22 14 17 17 8 11 18 24 29 25 19 16 16 10 6 4 6 8 11 37 30 17 21 3 39 66 87 102 97 102 111 120 152 176 167 180 198
46 44 43 47 42 27 16 14 23 20 10 10 18 17 23 21 15 19 18 8 12 21 19 1 17 38 38 21 9 359 2 15 67 84 92 110 118 125 125 140 167 175 191
47 46 45 34 33 29 16 16 29 21 6 5 15 14 18 16 16 21 25 15 22 35 17 17 20 26 32 15 352 347 336 328 46 83 143 100 115 133 136 144 138 164 204
47 38 36 31 18 23 15 6 12 359 348 354 3 6 12 11 14 20 22 23 22 30 25 23 29 30 11 30 21 337 325 288 246 267 97 109 109 121 118 123 116 111 114
51 35 31 28 17 10 3 352 346 332 332 348 360 358 2 7 17 22 25 18 17 19 28 22 33 22 353 20 73 301 310 333 315 281 237 195 185 101 113 125 114 103 84
49 29 15 17 11 360 2 10 4 357 354 359 347 342 353 5 17 28 27 18 12 23 27 13 23 38 344 320 15 146 197 233 303 297 260 185 167 168 143 110 109 104 113
55 35 13 10 3 3 12 20 21 360 331 316 317 326 343 0 8 24 21 15 13 17 8 348 16 21 26 304 322 327 257 217 203 308 304 297 132 108 66 58 78 94 106
67 49 15 2 358 359 358 350 343 334 325 328 328 332 336 344 6 15 9 17 14 18 9 358 359 4 360 331 306 310 314 313 268 209 259 292 327 349 64 65 75 77 87
77 57 16 351 345 345 343 335 339 336 335 337 337 331 326 317 341 360 354 3 1 5 17 357 349 345 338 333 323 314 244 272 283 265 250 277 285 284 291 94 91 85 81
Height
1512 1512 1513 1513 1514 1514 1515 1515 1515 1516 1516 1516 1517 1517 1518 1518 1518 1519 1519 1520 1521 1521 1522 1523 1523 1524 1524 1525 1525 1525 1526 1526 1527 1527 1528 1528 1529 1529 1530 1531 1531 1532 1532
1512 1512 1513 1513 1514 1514 1515 1515 1516 1516 1516 1516 1517 1517 1518 1518 1519 1519 1520 1520 1521 1522 1522 1523 1523 1524 1525 1525 1526 1526 1527 1527 1528 1528 1529 1529 1530 1531 1531 1532 1532 1533 1533
1512 1512 1513 1513 1514 1514 1515 1515 1516 1516 1516 1516 1517 1517 1518 1518 1519 1519 1520 1520 1521 1522 1523 1523 1524 1524 1525 1526 1526 1527 1527 1528 1529 1529 1530 1530 1531 1531 1532 1532 1533 1534 1534
1512 1512 1512 1513 1514 1514 1515 1515 1516 1516 1516 1517 1517 1517 1518 1518 1518 1519 1520 1520 1521 1522 1522 1523 1523 1524 1525 1526 1527 1527 1528 1529 1529 1530 1531 1531 1531 1532 1532 1533 1534 1534 1535
1512 1512 1512 1513 1513 1514 1514 1515 1515 1516 1516 1516 1517 1517 1517 1518 1518 1519 1519 1520 1521 1521 1522 1522 1523 1524 1524 1525 1526 1527 1528 1529 1529 1530 1531 1532 1532 1532 1533 1533 1534 1534 1535
1512 1511 1512 1513 1513 1514 1514 1514 1515 1515 1516 1516 1516 1517 1517 1517 1518 1518 1519 1519 1520 1521 1521 1522 1523 1523 1524 1525 1526 1527 1528 1529 1529 1530 1531 1531 1532 1533 1533 1534 1534 1535 1535
1511 1511 1512 1512 1513 1513 1514 1514 1514 1515 1515 1516 1516 1516 1517 1517 1517 1517 1518 1518 1519 1520 1520 1521 1522 1523 1524 1524 1525 1526 1527 1528 1529 1530 1530 1531 1532 1532 1533 1533 1534 1534 1535
1511 1511 1511 1512 1512 1513 1513 1513 1514 1514 1514 1515 1515 1515 1516 1516 1516 1517 1517 1518 1518 1519 1519 1520 1521 1522 1523 1524 1524 1525 1527 1527 1528 1529 1530 1531 1531 1532 1532 1533 1534 1534 1535
1511 1510 1510 1511 1511 1512 1512 1513 1513 1513 1513 1514 1514 1514 1514 1515 1515 1515 1516 1516 1517 1518 1518 1519 1519 1520 1521 1523 1524 1524 1525 1526 1527 1528 1529 1530 1530 1531 1532 1532 1533 1534 1534
1510 1510 1510 1510 1510 1510 1511 1511 1512 1512 1512 1513 1513 1513 1513 1513 1514 1514 1514 1515 1516 1516 1517 1517 1518 1519 1520 1521 1522 1523 1524 1525 1526 1527 1528 1529 1529 1530 1531 1531 1532 1533 1533
1509 1509 1509 1510 1510 1510 1510 1510 1510 1511 1511 1511 1511 1512 1512 1512 1512 1512 1513 1513 1514 1515 1515 1516 1517 1517 1518 1519 1521 1522 1522 1523 1524 1525 1526 1527 1528 1529 1529 1530 1531 1532 1532
1508 1508 1508 1509 1509 1509 1509 1509 1509 1509 1509 1510 1510 1510 1510 1510 1511 1511 1511 1512 1512 1513 1513 1514 1515 1516 1516 1517 1519 1520 1520 1521 1522 1523 1524 1525 1526 1527 1528 1529 1529 1530 1531
1507 1508 1508 1508 1508 1508 1508 1507 1507 1508 1508 1508 1508 1509 1509 1509 1509 1509 1509 1510 1510 1511 1511 1512 1513 1514 1515 1515 1517 1517 1518 1519 1520 1521 1522 1523 1524 1525 1526 1527 1528 1528 1529
1507 1507 1507 1507 1507 1506 1506 1506 1506 1506 1506 1506 1506 1507 1507 1507 1507 1507 1507 1508 1509 1509 1510 1510 1511 1512 1513 1514 1514 1515 1517 1517 1518 1519 1520 1521 1522 1523 1524 1525 1526 1526 1527
1505 1505 1505 1505 1505 1505 1505 1505 1505 1504 1505 1505 1504 1504 1504 1504 1505 1505 1505 1506 1506 1507 1507 1508 1509 1509 1510 1511 1512 1513 1514 1515 1516 1517 1518 1519 1520 1521 1522 1523 1524 1524 1525
1504 1504 1504 1504 1504 1504 1503 1503 1503 1503 1503 1503 1503 1503 1503 1503 1503 1503 1503 1504 1504 1505 1505 1506 1506 1507 1508 1508 1509 1510 1511 1512 1513 1515 1515 1516 1518 1519 1519 1520 1521 1522 1523
1503 1503 1502 1502 1503 1503 1502 1502 1502 1502 1502 1501 1501 1501 1501 1501 1501 1501 1501 1501 1502 1502 1503 1504 1504 1505 1505 1506 1506 1508 1509 1509 1510 1512 1513 1514 1515 1516 1517 1518 1519 1520 1521
1502 1501 1501 1501 1501 1501 1501 1501 1500 1500 1500 1500 1499 1499 1499 1499 1499 1499 1499 1499 1499 1500 1501 1501 1502 1502 1503 1503 1504 1505 1506 1507 1508 1509 1510 1511 1512 1513 1514 1515 1516 1517 1518
1500 1500 1500 1500 1500 1500 1499 1499 1499 1499 1498 1498 1498 1498 1497 1497 1497 1497 1497 1497 1497 1498 1498 1499 1499 1500 1500 1501 1502 1502 1503 1504 1505 1506 1507 1508 1509 1510 1511 1512 1512 1514 1515
1499 1499 1499 1498 1498 1498 1498 1498 1497 1497 1497 1496 1496 1496 1495 1495 1495 1495 1494 1495 1495 1495 1495 1496 1497 1497 1498 1498 1499 1500 1501 1501 1502 1503 1504 1505 1506 1507 1508 1509 1509 1510 1511
1497 1497 1497 1497 1496 1496 1496 1495 1495 1495 1494 1494 1494 1494 1493 1493 1493 1492 1492 1492 1492 1493 1493 1493 1494 1495 1496 1496 1497 1497 1498 1499 1500 1501 1501 1502 1503 1504 1505 1506 1506 1507 1508
1495 1495 1495 1495 1495 1495 1495 1494 1494 1494 1493 1493 1492 1492 1491 1491 1490 1490 1490 1490 1490 1490 1491 1491 1492 1492 1493 1494 1495 1495 1496 1497 1497 1498 1499 1499 1500 1501 1502 1503 1504 1504 1505
1494 1494 1493 1493 1493 1493 1493 1493 1492 1492 1491 1491 1490 1489 1489 1489 1488 1488 1488 1487 1488 1488 1488 1489 1490 1490 1491 1492 1493 1494 1494 1494 1494 1496 1495 1496 1497 1498 1499 1499 1500 1501 1502
1492 1492 1492 1492 1492 1492 1491 1491 1490 1490 1489 1489 1488 1488 1487 1486 1486 1486 1485 1485 1485 1485 1486 1486 1487 1488 1489 1489 1490 1491 1493 1492 1493 1492 1493 1494 1494 1495 1496 1497 1497 1498 1498
1491 1491 1491 1490 1490 1490 1489 1489 1488 1488 1487 1487 1486 1485 1484 1484 1484 1484 1483 1483 1483 1483 1483 1484 1484 1485 1486 1487 1488 1488 1489 1490 1490 1490 1490 1491 1492 1492 1493 1493 1494 1495 1495
1490 1489 1489 1488 1488 1488 1487 1487 1486 1486 1485 1484 1484 1483 1482 1482 1482 1481 1481 1481 1481 1481 1481 1481 1482 1483 1483 1484 1485 1486 1487 1487 1487 1488 1488 1488 1488 1489 1490 1490 1491 1492 1492